AKDT,Max TemperatureF,Mean TemperatureF,Min TemperatureF,Max Dew PointF,MeanDew PointF,Min DewpointF,Max Humidity, Mean Humidity, Min Humidity, Max Sea Level PressureIn, Mean Sea Level PressureIn, Min Sea Level PressureIn, Max VisibilityMiles, Mean VisibilityMiles, Min VisibilityMiles, Max Wind SpeedMPH, Mean Wind SpeedMPH, Max Gust SpeedMPH,PrecipitationIn, CloudCover, Events, WindDirDegrees
2013-3-1,39,36,33,36,34,32,100,92,87,30.00,29.89,29.77,10,8,1,15,10,26,0.37,8,Rain-Snow,72
2013-3-2,39,34,28,34,31,27,100,88,68,30.21,30.04,29.98,10,10,8,16,9,,0.01,3,Rain,299
2013-3-3,37,32,26,29,25,23,92,80,57,30.52,30.40,30.23,10,10,10,16,7,20,0.00,2,,288
2013-3-4,37,31,25,22,19,15,78,62,48,30.54,30.45,30.33,10,10,5,20,15,25,0.00,0,,300
2013-3-5,39,30,21,19,14,9,75,56,31,30.32,30.12,29.97,10,9,4,17,15,25,0.00,0,,299
2013-3-6,37,28,19,24,19,16,89,70,45,30.00,29.97,29.95,10,10,10,13,7,,0.00,0,,287
2013-3-7,37,28,19,25,20,16,85,70,52,30.06,30.02,30.00,10,10,10,14,6,,0.00,0,,287
2013-3-8,39,32,24,32,26,21,88,77,62,30.11,30.08,30.06,10,10,10,14,6,21,0.00,5,,85
2013-3-9,37,35,33,34,33,32,100,93,82,30.11,30.03,29.96,10,9,5,13,6,,0.09,8,Rain-Snow,120
2013-3-10,39,37,35,34,32,30,93,84,75,30.28,30.24,30.09,10,10,10,14,8,22,0.00,7,Rain,93
2013-3-11,35,32,30,32,31,28,100,94,82,30.28,30.17,30.08,10,3,0,14,6,,0.27,8,Fog-Snow,294
2013-3-12,32,26,19,28,11,-3,85,53,37,30.14,30.11,30.07,10,10,10,23,11,31,0.00,3,,299
2013-3-13,23,19,14,0,-2,-4,49,40,32,30.16,30.09,30.07,10,10,10,16,12,23,0.00,2,,301
2013-3-14,24,17,10,1,-2,-6,51,43,34,30.21,30.16,30.09,10,10,10,17,13,28,0.00,0,,304
2013-3-15,21,18,15,14,11,-1,88,73,42,30.15,30.07,30.04,10,5,0,13,10,,0.08,8,Fog-Snow,304
2013-3-16,28,22,15,19,12,6,86,67,53,30.09,30.05,29.99,10,9,2,13,8,20,0.00,6,Snow,301
2013-3-17,28,23,18,18,8,3,88,56,39,30.16,30.12,30.09,10,10,4,14,7,17,0.00,3,Snow,314
2013-3-18,27,18,8,19,8,-2,86,61,34,30.09,29.98,29.88,10,8,2,16,10,,0.00,5,Snow,296
2013-3-19,30,24,19,16,9,3,81,54,43,29.87,29.79,29.75,10,10,10,22,14,28,0.00,6,,303
2013-3-20,25,20,15,2,-1,-4,46,39,32,29.92,29.82,29.78,10,10,10,21,11,29,0.00,0,,307
2013-3-21,25,19,14,1,-2,-6,49,41,34,30.38,30.17,29.94,10,9,4,22,13,30,0.00,1,,300
2013-3-22,27,17,7,21,7,-1,81,63,38,30.40,30.37,30.31,10,9,5,14,10,,0.00,4,Snow,281
2013-3-23,30,26,21,27,21,11,93,81,60,30.31,30.22,30.17,10,5,1,13,8,,0.06,8,Snow,291
2013-3-24,35,30,26,33,28,25,100,93,85,30.17,30.06,29.86,10,5,1,10,7,,0.05,8,Rain-Snow,287
2013-3-25,42,36,32,36,34,32,100,89,81,29.83,29.72,29.65,10,8,2,21,9,37,0.72,8,Rain-Snow,103
2013-3-26,36,34,32,34,29,24,93,82,70,30.10,29.92,29.73,10,4,1,21,14,34,0.04,7,Rain-Snow,112
2013-3-27,37,31,25,26,23,17,85,68,52,30.22,30.15,30.10,10,10,10,14,7,22,0.00,0,,104
2013-3-28,37,31,25,23,18,14,78,60,46,30.24,30.22,30.20,10,10,10,15,10,,0.00,4,,283
2013-3-29,41,32,26,30,24,19,81,67,55,30.31,30.27,30.23,10,10,10,13,7,24,0.00,5,,18
2013-3-30,42,38,35,36,34,30,92,86,76,30.36,30.28,30.20,10,10,10,14,10,28,0.00,8,Rain,87
2013-3-31,45,38,33,34,32,27,100,82,53,30.36,30.28,30.05,10,8,2,13,8,,0.00,7,,296